| time (UTC) | temp C | wind direction | speed KPH | gust KPH | rain 1hr cm | rain 24hr cm | rain mn cm | humidity % | barometer mb |
| 20260507105600 | 16 | 76 | 3.2 | 8.0 | 0.00 | 0.00 | 0.00 | 72 | 1014.0 |
| 20260507105046 | 16 | 9 | 1.6 | 8.0 | 0.00 | 0.00 | 0.00 | 71 | 1014.0 |
| 20260507104536 | 16 | 51 | 4.8 | 11.3 | 0.00 | 0.00 | 0.00 | 71 | 1014.1 |
| 20260507104041 | 16 | 26 | 4.8 | 8.0 | 0.00 | 0.00 | 0.00 | 72 | 1014.1 |
| 20260507103527 | 16 | 360 | 1.6 | 8.0 | 0.00 | 0.00 | 0.00 | 70 | 1014.1 |
| 20260507103043 | 16 | 21 | 1.6 | 6.4 | 0.00 | 0.00 | 0.00 | 69 | 1014.1 |
| 20260507102529 | 16 | 27 | 1.6 | 6.4 | 0.00 | 0.00 | 0.00 | 72 | 1014.2 |
| 20260507102057 | 15 | 68 | 3.2 | 6.4 | 0.00 | 0.00 | 0.00 | 72 | 1014.2 |
| 20260507101543 | 15 | 329 | 1.6 | 6.4 | 0.00 | 0.00 | 0.00 | 71 | 1014.2 |
| 20260507101038 | 15 | 25 | 1.6 | 6.4 | 0.00 | 0.00 | 0.00 | 73 | 1014.2 |
| 20260507100540 | 15 | 82 | 1.6 | 4.8 | 0.00 | 0.00 | 0.00 | 75 | 1014.2 |
| 20260507095527 | 14 | 28 | 0.0 | 6.4 | 0.00 | 0.00 | 0.00 | 73 | 1014.1 |
| 20260507095042 | 15 | 355 | 3.2 | 6.4 | 0.00 | 0.00 | 0.00 | 72 | 1014.1 |
| 20260507094526 | 15 | 9 | 1.6 | 6.4 | 0.00 | 0.00 | 0.00 | 72 | 1014.1 |
| 20260507094043 | 16 | 350 | 0.0 | 6.4 | 0.00 | 0.00 | 0.00 | 72 | 1014.1 |
| 20260507093530 | 16 | 360 | 1.6 | 6.4 | 0.00 | 0.00 | 0.00 | 73 | 1014.2 |
| 20260507093032 | 16 | 163 | 1.6 | 6.4 | 0.00 | 0.00 | 0.00 | 76 | 1014.2 |
| 20260507092539 | 15 | 160 | 1.6 | 6.4 | 0.00 | 0.00 | 0.00 | 75 | 1014.2 |
| 20260507092103 | 15 | 166 | 1.6 | 4.8 | 0.00 | 0.00 | 0.00 | 76 | 1014.1 |
| 20260507091534 | 14 | 41 | 0.0 | 3.2 | 0.00 | 0.00 | 0.00 | 75 | 1014.1 |
| 20260507091035 | 13 | 61 | 1.6 | 3.2 | 0.00 | 0.00 | 0.00 | 78 | 1014.1 |
| 20260507090536 | 13 | 35 | 0.0 | 4.8 | 0.00 | 0.00 | 0.00 | 78 | 1014.1 |
| 20260507090030 | 13 | 44 | 0.0 | 4.8 | 0.00 | 0.10 | 0.00 | 78 | 1014.0 |
| 20260507085528 | 13 | 140 | 0.0 | 1.6 | 0.00 | 0.10 | 0.00 | 79 | 1014.0 |
| 20260507085045 | 13 | 74 | 0.0 | 3.2 | 0.00 | 0.10 | 0.00 | 80 | 1014.0 |
| 20260507084543 | 13 | 61 | 1.6 | 3.2 | 0.00 | 0.10 | 0.00 | 81 | 1013.9 |
| 20260507084045 | 12 | 53 | 1.6 | 3.2 | 0.00 | 0.10 | 0.00 | 81 | 1013.9 |
| 20260507083529 | 12 | 28 | 0.0 | 4.8 | 0.00 | 0.10 | 0.00 | 82 | 1013.9 |
| 20260507083040 | 12 | 50 | 1.6 | 6.4 | 0.00 | 0.10 | 0.00 | 82 | 1013.9 |
| 20260507082542 | 12 | 66 | 1.6 | 6.4 | 0.00 | 0.10 | 0.00 | 82 | 1013.9 |
| 20260507082041 | 13 | 57 | 1.6 | 4.8 | 0.00 | 0.10 | 0.00 | 83 | 1013.8 |
| 20260507081538 | 13 | 71 | 0.0 | 4.8 | 0.00 | 0.10 | 0.00 | 83 | 1013.8 |
| 20260507081033 | 13 | 63 | 1.6 | 4.8 | 0.00 | 0.10 | 0.00 | 85 | 1013.8 |
| 20260507080535 | 12 | 54 | 0.0 | 4.8 | 0.00 | 0.10 | 0.00 | 85 | 1013.9 |
| 20260507080040 | 12 | 44 | 1.6 | 4.8 | 0.00 | 0.10 | 0.00 | 84 | 1013.8 |
| 20260507075554 | 12 | 87 | 0.0 | 3.2 | 0.00 | 0.10 | 0.00 | 86 | 1013.9 |
| 20260507075028 | 12 | 103 | 0.0 | 3.2 | 0.00 | 0.10 | 0.00 | 88 | 1013.9 |
| 20260507074535 | 11 | 67 | 0.0 | 1.6 | 0.00 | 0.10 | 0.00 | 86 | 1013.9 |
| 20260507074034 | 12 | 49 | 0.0 | 1.6 | 0.00 | 0.10 | 0.00 | 85 | 1013.8 |
| 20260507073539 | 11 | 78 | 0.0 | 1.6 | 0.00 | 0.10 | 0.00 | 87 | 1013.8 |
| 20260507073034 | 11 | 29 | 0.0 | 1.6 | 0.00 | 0.10 | 0.00 | 87 | 1013.8 |
| 20260507072539 | 11 | 17 | 0.0 | 1.6 | 0.00 | 0.10 | 0.00 | 89 | 1013.7 |
| 20260507072036 | 11 | 52 | 0.0 | 1.6 | 0.00 | 0.10 | 0.00 | 90 | 1013.7 |
| 20260507071531 | 11 | 49 | 0.0 | 1.6 | 0.00 | 0.10 | 0.00 | 89 | 1013.7 |
| 20260507071027 | 11 | 48 | 0.0 | 1.6 | 0.00 | 0.10 | 0.00 | 89 | 1013.7 |
| 20260507070535 | 10 | 57 | 0.0 | 1.6 | 0.00 | 0.10 | 0.00 | 90 | 1013.8 |
| 20260507070043 | 10 | 9 | 0.0 | 1.6 | 0.00 | 0.30 | 0.00 | 92 | 1013.8 |
| 20260507065546 | 10 | 32 | 0.0 | 1.6 | 0.00 | 0.30 | 0.00 | 90 | 1013.8 |
| 20260507065039 | 10 | 30 | 0.0 | 1.6 | 0.00 | 0.30 | 0.00 | 90 | 1013.7 |
| 20260507064607 | 10 | 28 | 0.0 | 1.6 | 0.00 | 0.30 | 0.00 | 91 | 1013.5 |
| 20260507064027 | 10 | 26 | 0.0 | 1.6 | 0.00 | 0.30 | 0.00 | 92 | 1013.6 |
| 20260507063535 | 9 | 5 | 0.0 | 1.6 | 0.00 | 0.30 | 0.00 | 93 | 1013.6 |
| 20260507063037 | 9 | 35 | 0.0 | 1.6 | 0.00 | 0.30 | 0.00 | 93 | 1013.6 |
| 20260507062542 | 8 | 32 | 0.0 | 1.6 | 0.00 | 0.30 | 0.00 | 94 | 1013.5 |
| 20260507062044 | 8 | 13 | 0.0 | 1.6 | 0.00 | 0.30 | 0.00 | 94 | 1013.5 |
| 20260507061529 | 8 | 17 | 0.0 | 1.6 | 0.00 | 0.30 | 0.00 | 95 | 1013.4 |
| 20260507061035 | 8 | 5 | 0.0 | 1.6 | 0.00 | 0.30 | 0.00 | 97 | 1013.4 |
| 20260507060542 | 8 | 306 | 0.0 | 1.6 | 0.00 | 0.30 | 0.00 | 97 | 1013.4 |
| 20260507060031 | 8 | 305 | 0.0 | 1.6 | 0.00 | 0.41 | 0.00 | 97 | 1013.4 |
| 20260507055532 | 7 | 305 | 0.0 | 1.6 | 0.00 | 0.41 | 0.00 | 97 | 1013.4 |
| 20260507055039 | 7 | 305 | 0.0 | 1.6 | 0.00 | 0.41 | 0.00 | 97 | 1013.4 |
| 20260507054528 | 7 | 309 | 0.0 | 1.6 | 0.00 | 0.41 | 0.00 | 97 | 1013.3 |
| 20260507054043 | 6 | 309 | 0.0 | 1.6 | 0.00 | 0.41 | 0.00 | 97 | 1013.2 |
| 20260507053530 | 6 | 312 | 0.0 | 1.6 | 0.00 | 0.41 | 0.00 | 97 | 1013.1 |
| 20260507053044 | 6 | 311 | 0.0 | 1.6 | 0.00 | 0.41 | 0.00 | 96 | 1013.1 |
| 20260507052536 | 6 | 307 | 0.0 | 0.0 | 0.00 | 0.41 | 0.00 | 97 | 1013.1 |
| 20260507052028 | 6 | 307 | 0.0 | 0.0 | 0.00 | 0.41 | 0.00 | 96 | 1013.0 |
| 20260507051558 | 5 | 307 | 0.0 | 0.0 | 0.00 | 0.41 | 0.00 | 96 | 1013.0 |
| 20260507051032 | 5 | 307 | 0.0 | 1.6 | 0.00 | 0.41 | 0.00 | 96 | 1013.0 |
| 20260507050541 | 5 | 307 | 0.0 | 3.2 | 0.00 | 0.41 | 0.00 | 96 | 1013.0 |
| 20260507050028 | 5 | 305 | 1.6 | 3.2 | 0.00 | 0.41 | 0.00 | 96 | 1013.0 |
| 20260507045535 | 5 | 302 | 0.0 | 0.0 | 0.00 | 0.41 | 0.00 | 96 | 1013.0 |
| 20260507045028 | 5 | 302 | 0.0 | 1.6 | 0.00 | 0.41 | 0.00 | 96 | 1012.9 |
| 20260507044533 | 5 | 302 | 0.0 | 1.6 | 0.00 | 0.41 | 0.00 | 96 | 1012.8 |
| 20260507044058 | 5 | 302 | 0.0 | 1.6 | 0.00 | 0.41 | 0.00 | 96 | 1012.8 |
| 20260507043527 | 5 | 302 | 0.0 | 1.6 | 0.00 | 0.41 | 0.00 | 96 | 1012.8 |
| 20260507043043 | 5 | 303 | 0.0 | 1.6 | 0.00 | 0.41 | 0.00 | 96 | 1012.7 |
| 20260507042531 | 5 | 303 | 0.0 | 1.6 | 0.00 | 0.41 | 0.00 | 96 | 1012.7 |
| 20260507042057 | 5 | 304 | 0.0 | 1.6 | 0.00 | 0.41 | 0.00 | 96 | 1012.7 |
| 20260507041545 | 5 | 304 | 0.0 | 1.6 | 0.00 | 0.41 | 0.00 | 96 | 1012.6 |
| 20260507041027 | 5 | 306 | 0.0 | 3.2 | 0.00 | 0.41 | 0.00 | 96 | 1012.6 |
| 20260507040534 | 5 | 306 | 0.0 | 3.2 | 0.00 | 0.41 | 0.00 | 96 | 1012.7 |
| 20260507040026 | 5 | 313 | 0.0 | 1.6 | 0.00 | 0.51 | 0.00 | 96 | 1012.6 |
| 20260507035550 | 5 | 313 | 0.0 | 3.2 | 0.00 | 0.51 | 0.00 | 96 | 1012.7 |
| 20260507035036 | 5 | 313 | 0.0 | 1.6 | 0.00 | 0.51 | 0.00 | 96 | 1012.6 |
| 20260507034542 | 5 | 313 | 0.0 | 3.2 | 0.00 | 0.51 | 0.00 | 96 | 1012.6 |
| 20260507034032 | 5 | 313 | 0.0 | 3.2 | 0.00 | 0.51 | 0.00 | 96 | 1012.6 |
| 20260507033540 | 5 | 314 | 1.6 | 3.2 | 0.00 | 0.51 | 0.00 | 96 | 1012.6 |
| 20260507033047 | 5 | 314 | 0.0 | 3.2 | 0.00 | 0.51 | 0.00 | 96 | 1012.6 |
| 20260507032529 | 5 | 314 | 1.6 | 3.2 | 0.00 | 0.51 | 0.00 | 96 | 1012.5 |
| 20260507032032 | 5 | 315 | 0.0 | 3.2 | 0.00 | 0.51 | 0.00 | 96 | 1012.5 |
| 20260507031534 | 5 | 313 | 1.6 | 3.2 | 0.00 | 0.51 | 0.00 | 95 | 1012.6 |
| 20260507031032 | 5 | 313 | 1.6 | 3.2 | 0.00 | 0.51 | 0.00 | 95 | 1012.5 |
| 20260507030536 | 5 | 311 | 1.6 | 3.2 | 0.00 | 0.51 | 0.00 | 95 | 1012.5 |
| 20260507030044 | 5 | 303 | 1.6 | 3.2 | 0.00 | 0.71 | 0.00 | 96 | 1012.6 |
| 20260507025535 | 5 | 306 | 1.6 | 3.2 | 0.00 | 0.71 | 0.00 | 95 | 1012.5 |
| 20260507025027 | 5 | 300 | 0.0 | 3.2 | 0.00 | 0.71 | 0.00 | 95 | 1012.6 |
| 20260507024535 | 5 | 298 | 0.0 | 3.2 | 0.00 | 0.71 | 0.00 | 96 | 1012.5 |
| 20260507024036 | 5 | 298 | 0.0 | 3.2 | 0.00 | 0.71 | 0.00 | 95 | 1012.5 |
| 20260507023540 | 5 | 302 | 0.0 | 3.2 | 0.00 | 0.71 | 0.00 | 95 | 1012.5 |
| 20260507023039 | 5 | 297 | 1.6 | 3.2 | 0.00 | 0.71 | 0.00 | 95 | 1012.5 |
| 20260507022544 | 5 | 294 | 1.6 | 3.2 | 0.00 | 0.71 | 0.00 | 95 | 1012.5 |
| 20260507022045 | 5 | 306 | 1.6 | 3.2 | 0.00 | 0.71 | 0.00 | 95 | 1012.5 |
| 20260507021535 | 6 | 306 | 1.6 | 3.2 | 0.00 | 0.71 | 0.00 | 95 | 1012.5 |
| 20260507021028 | 5 | 303 | 1.6 | 3.2 | 0.00 | 0.71 | 0.00 | 95 | 1012.4 |
| 20260507020542 | 6 | 303 | 1.6 | 3.2 | 0.00 | 0.71 | 0.00 | 95 | 1012.3 |
| 20260507020033 | 6 | 298 | 1.6 | 3.2 | 0.00 | 0.79 | 0.00 | 95 | 1012.4 |
| 20260507015602 | 6 | 303 | 1.6 | 3.2 | 0.00 | 0.79 | 0.00 | 95 | 1012.3 |
| 20260507015034 | 6 | 304 | 1.6 | 1.6 | 0.00 | 0.79 | 0.00 | 95 | 1012.4 |
| 20260507014537 | 6 | 304 | 0.0 | 1.6 | 0.00 | 0.79 | 0.00 | 95 | 1012.3 |
| 20260507014041 | 6 | 304 | 0.0 | 1.6 | 0.00 | 0.79 | 0.00 | 95 | 1012.3 |
| 20260507013543 | 6 | 304 | 0.0 | 1.6 | 0.00 | 0.79 | 0.00 | 95 | 1012.3 |
| 20260507013043 | 6 | 304 | 0.0 | 1.6 | 0.00 | 0.79 | 0.00 | 95 | 1012.2 |
| 20260507012529 | 6 | 304 | 0.0 | 3.2 | 0.00 | 0.79 | 0.00 | 95 | 1012.2 |
| 20260507012058 | 6 | 308 | 1.6 | 3.2 | 0.00 | 0.79 | 0.00 | 95 | 1012.2 |
| 20260507011546 | 6 | 302 | 0.0 | 1.6 | 0.00 | 0.79 | 0.00 | 95 | 1012.3 |
| 20260507011028 | 6 | 300 | 0.0 | 1.6 | 0.00 | 0.79 | 0.00 | 95 | 1012.2 |
| 20260507010534 | 6 | 299 | 0.0 | 3.2 | 0.00 | 0.79 | 0.00 | 95 | 1012.1 |
| 20260507010039 | 6 | 299 | 1.6 | 3.2 | 0.00 | 0.89 | 0.00 | 95 | 1012.1 |
| 20260507005541 | 6 | 298 | 0.0 | 3.2 | 0.00 | 0.89 | 0.00 | 95 | 1012.0 |
| 20260507005042 | 6 | 298 | 0.0 | 4.8 | 0.00 | 0.89 | 0.00 | 95 | 1012.0 |
| 20260507004528 | 6 | 305 | 1.6 | 4.8 | 0.00 | 0.89 | 0.00 | 95 | 1012.0 |
| 20260507004029 | 6 | 294 | 1.6 | 4.8 | 0.00 | 0.89 | 0.00 | 95 | 1012.0 |
| 20260507003535 | 6 | 281 | 1.6 | 4.8 | 0.00 | 0.89 | 0.00 | 95 | 1012.0 |
| 20260507003034 | 6 | 302 | 0.0 | 3.2 | 0.00 | 0.89 | 0.00 | 95 | 1012.0 |
| 20260507002545 | 6 | 299 | 1.6 | 3.2 | 0.00 | 0.89 | 0.00 | 94 | 1012.1 |
| 20260507002031 | 6 | 306 | 0.0 | 3.2 | 0.00 | 0.89 | 0.00 | 95 | 1012.2 |
| 20260507001533 | 6 | 296 | 0.0 | 3.2 | 0.00 | 0.89 | 0.00 | 95 | 1012.2 |
| 20260507001035 | 6 | 293 | 1.6 | 3.2 | 0.00 | 0.89 | 0.00 | 94 | 1012.1 |
| 20260507000604 | 6 | 300 | 0.0 | 1.6 | 0.00 | 0.89 | 0.00 | 94 | 1012.1 |
| 20260506235538 | 6 | 290 | 0.0 | 3.2 | 0.00 | 0.89 | 0.18 | 94 | 1012.1 |
| 20260506235043 | 7 | 295 | 0.0 | 3.2 | 0.00 | 0.89 | 0.18 | 94 | 1012.1 |
| 20260506234528 | 7 | 298 | 0.0 | 1.6 | 0.00 | 0.89 | 0.18 | 94 | 1012.1 |
| 20260506234028 | 7 | 296 | 0.0 | 1.6 | 0.00 | 0.89 | 0.18 | 94 | 1012.0 |
| 20260506233555 | 7 | 295 | 0.0 | 1.6 | 0.00 | 0.89 | 0.18 | 94 | 1012.0 |
| 20260506233033 | 7 | 304 | 0.0 | 3.2 | 0.00 | 0.89 | 0.18 | 93 | 1012.0 |
| 20260506232542 | 7 | 304 | 1.6 | 4.8 | 0.00 | 0.89 | 0.18 | 93 | 1012.1 |
| 20260506232046 | 7 | 300 | 0.0 | 4.8 | 0.00 | 0.89 | 0.18 | 93 | 1012.0 |
| 20260506231528 | 7 | 325 | 0.0 | 1.6 | 0.00 | 0.89 | 0.18 | 93 | 1012.0 |
| 20260506231030 | 7 | 325 | 0.0 | 1.6 | 0.00 | 0.89 | 0.18 | 92 | 1011.9 |
| 20260506230531 | 7 | 344 | 0.0 | 1.6 | 0.00 | 0.89 | 0.18 | 92 | 1011.9 |
| 20260506230038 | 7 | 347 | 0.0 | 0.0 | 0.00 | 0.89 | 0.18 | 92 | 1011.8 |
| 20260506225543 | 8 | 347 | 0.0 | 0.0 | 0.00 | 0.89 | 0.18 | 92 | 1011.8 |
| 20260506225044 | 8 | 347 | 0.0 | 0.0 | 0.00 | 0.89 | 0.18 | 92 | 1011.8 |
| 20260506224558 | 8 | 347 | 0.0 | 0.0 | 0.00 | 0.89 | 0.18 | 92 | 1011.8 |
| 20260506224036 | 8 | 347 | 0.0 | 0.0 | 0.00 | 0.89 | 0.18 | 91 | 1011.8 |
| 20260506223545 | 8 | 347 | 0.0 | 1.6 | 0.00 | 0.89 | 0.18 | 91 | 1011.7 |
| 20260506223031 | 8 | 347 | 0.0 | 1.6 | 0.00 | 0.89 | 0.18 | 91 | 1011.8 |
| 20260506222541 | 8 | 347 | 0.0 | 0.0 | 0.00 | 0.89 | 0.18 | 91 | 1011.8 |
| 20260506222029 | 8 | 347 | 0.0 | 1.6 | 0.00 | 0.89 | 0.18 | 90 | 1011.7 |
| 20260506221536 | 8 | 347 | 0.0 | 1.6 | 0.00 | 0.89 | 0.18 | 90 | 1011.8 |
| 20260506221033 | 8 | 345 | 0.0 | 1.6 | 0.00 | 0.89 | 0.18 | 90 | 1011.7 |
| 20260506220544 | 8 | 333 | 0.0 | 1.6 | 0.00 | 0.89 | 0.18 | 89 | 1011.7 |
| 20260506220042 | 8 | 343 | 0.0 | 3.2 | 0.00 | 0.89 | 0.18 | 89 | 1011.7 |
| 20260506215533 | 9 | 340 | 0.0 | 4.8 | 0.00 | 0.89 | 0.18 | 89 | 1011.6 |
| 20260506215043 | 9 | 332 | 1.6 | 4.8 | 0.00 | 0.89 | 0.18 | 89 | 1011.6 |
| 20260506214546 | 9 | 333 | 1.6 | 3.2 | 0.00 | 0.89 | 0.18 | 88 | 1011.6 |
| 20260506214030 | 9 | 341 | 0.0 | 3.2 | 0.00 | 0.89 | 0.18 | 88 | 1011.6 |
| 20260506213536 | 9 | 327 | 1.6 | 4.8 | 0.00 | 0.89 | 0.18 | 88 | 1011.5 |
| 20260506213043 | 10 | 334 | 1.6 | 4.8 | 0.00 | 0.89 | 0.18 | 88 | 1011.4 |
| 20260506212544 | 10 | 338 | 1.6 | 8.0 | 0.00 | 0.89 | 0.18 | 88 | 1011.4 |
| 20260506212030 | 10 | 333 | 1.6 | 8.0 | 0.00 | 0.89 | 0.18 | 88 | 1011.3 |
| 20260506211531 | 10 | 330 | 1.6 | 8.0 | 0.00 | 0.89 | 0.18 | 88 | 1011.4 |
| 20260506211033 | 10 | 319 | 1.6 | 8.0 | 0.00 | 0.89 | 0.18 | 88 | 1011.3 |
| 20260506210544 | 10 | 344 | 3.2 | 8.0 | 0.00 | 0.89 | 0.18 | 88 | 1011.3 |
| 20260506210046 | 9 | 12 | 3.2 | 6.4 | 0.00 | 0.89 | 0.18 | 88 | 1011.3 |
| 20260506205536 | 10 | 342 | 3.2 | 6.4 | 0.00 | 0.89 | 0.18 | 87 | 1011.2 |
| 20260506205046 | 10 | 327 | 3.2 | 6.4 | 0.00 | 0.89 | 0.18 | 87 | 1011.2 |
| 20260506204558 | 10 | 327 | 1.6 | 6.4 | 0.00 | 0.89 | 0.18 | 87 | 1011.2 |
| 20260506204036 | 10 | 360 | 3.2 | 8.0 | 0.00 | 0.89 | 0.18 | 87 | 1011.1 |
| 20260506203538 | 10 | 332 | 3.2 | 8.0 | 0.00 | 0.89 | 0.18 | 87 | 1011.0 |
| 20260506203033 | 10 | 355 | 3.2 | 8.0 | 0.00 | 0.89 | 0.18 | 87 | 1010.9 |
| 20260506202532 | 10 | 350 | 3.2 | 6.4 | 0.00 | 0.89 | 0.18 | 87 | 1010.9 |
| 20260506202051 | 10 | 344 | 1.6 | 6.4 | 0.00 | 0.89 | 0.18 | 87 | 1010.8 |
| 20260506201537 | 10 | 355 | 1.6 | 4.8 | 0.00 | 0.89 | 0.18 | 87 | 1010.8 |
| 20260506201030 | 10 | 340 | 0.0 | 4.8 | 0.00 | 0.89 | 0.18 | 87 | 1010.8 |
| 20260506200604 | 10 | 334 | 1.6 | 4.8 | 0.00 | 0.89 | 0.18 | 86 | 1010.7 |
| 20260506200036 | 10 | 347 | 1.6 | 4.8 | 0.00 | 0.99 | 0.18 | 86 | 1010.6 |
| 20260506195542 | 10 | 342 | 1.6 | 4.8 | 0.00 | 0.99 | 0.18 | 86 | 1010.6 |
| 20260506195040 | 11 | 344 | 1.6 | 1.6 | 0.00 | 0.99 | 0.18 | 86 | 1010.5 |
| 20260506194540 | 11 | 346 | 0.0 | 1.6 | 0.00 | 0.99 | 0.18 | 86 | 1010.4 |
| 20260506194040 | 11 | 348 | 0.0 | 0.0 | 0.00 | 0.99 | 0.18 | 85 | 1010.4 |
| 20260506193543 | 11 | 351 | 0.0 | 0.0 | 0.00 | 0.99 | 0.18 | 85 | 1010.3 |
| 20260506193030 | 11 | 347 | 0.0 | 0.0 | 0.00 | 0.99 | 0.18 | 84 | 1010.2 |
| 20260506192529 | 11 | 346 | 0.0 | 1.6 | 0.00 | 0.99 | 0.18 | 83 | 1010.1 |
| 20260506192056 | 11 | 350 | 0.0 | 3.2 | 0.00 | 0.99 | 0.18 | 82 | 1010.1 |
| 20260506191538 | 12 | 345 | 0.0 | 3.2 | 0.00 | 0.99 | 0.18 | 81 | 1010.1 |
| 20260506191032 | 12 | 349 | 1.6 | 3.2 | 0.00 | 0.99 | 0.18 | 81 | 1010.0 |
| 20260506190540 | 12 | 347 | 1.6 | 4.8 | 0.00 | 0.99 | 0.18 | 81 | 1010.0 |
| 20260506190043 | 12 | 5 | 1.6 | 6.4 | 0.00 | 0.99 | 0.18 | 80 | 1009.9 |
| 20260506185527 | 12 | 328 | 1.6 | 6.4 | 0.00 | 0.99 | 0.18 | 80 | 1009.9 |
| 20260506185028 | 12 | 5 | 1.6 | 6.4 | 0.00 | 0.99 | 0.18 | 79 | 1009.8 |
| 20260506184540 | 12 | 344 | 1.6 | 9.7 | 0.00 | 0.99 | 0.18 | 79 | 1009.7 |
| 20260506184042 | 12 | 339 | 3.2 | 9.7 | 0.00 | 0.99 | 0.18 | 78 | 1009.7 |
| 20260506183533 | 13 | 320 | 3.2 | 6.4 | 0.00 | 0.99 | 0.18 | 78 | 1009.6 |
| 20260506183033 | 13 | 360 | 1.6 | 4.8 | 0.00 | 0.99 | 0.18 | 79 | 1009.6 |
| 20260506182537 | 13 | 355 | 1.6 | 4.8 | 0.00 | 0.99 | 0.18 | 79 | 1009.5 |
| 20260506182058 | 13 | 355 | 1.6 | 6.4 | 0.00 | 0.99 | 0.18 | 78 | 1009.4 |
| 20260506181554 | 13 | 350 | 3.2 | 6.4 | 0.00 | 0.99 | 0.18 | 78 | 1009.4 |
| 20260506181041 | 13 | 320 | 3.2 | 6.4 | 0.00 | 0.99 | 0.18 | 77 | 1009.3 |
| 20260506180536 | 13 | 355 | 0.0 | 6.4 | 0.00 | 0.99 | 0.18 | 78 | 1009.3 |
| 20260506180042 | 13 | 355 | 3.2 | 6.4 | 0.00 | 1.09 | 0.18 | 78 | 1009.2 |
| 20260506175528 | 13 | 348 | 1.6 | 6.4 | 0.00 | 1.09 | 0.18 | 78 | 1009.2 |
| 20260506175056 | 13 | 9 | 1.6 | 6.4 | 0.00 | 1.09 | 0.18 | 78 | 1009.1 |
| 20260506174542 | 13 | 355 | 1.6 | 4.8 | 0.00 | 1.09 | 0.18 | 78 | 1009.1 |
| 20260506174052 | 13 | 336 | 1.6 | 4.8 | 0.00 | 1.09 | 0.18 | 78 | 1009.0 |
| 20260506173539 | 13 | 323 | 1.6 | 3.2 | 0.00 | 1.09 | 0.18 | 78 | 1009.0 |
| 20260506173036 | 13 | 355 | 1.6 | 4.8 | 0.00 | 1.09 | 0.18 | 79 | 1009.0 |
| 20260506172554 | 13 | 331 | 1.6 | 9.7 | 0.00 | 1.09 | 0.18 | 79 | 1008.9 |
| 20260506172028 | 13 | 319 | 1.6 | 12.9 | 0.00 | 1.09 | 0.18 | 79 | 1008.9 |
| 20260506171040 | 14 | 280 | 4.8 | 9.7 | 0.00 | 1.09 | 0.18 | 78 | 1008.8 |
| 20260506170545 | 14 | 310 | 3.2 | 9.7 | 0.00 | 1.09 | 0.18 | 78 | 1008.8 |
| 20260506170046 | 14 | 300 | 1.6 | 11.3 | 0.00 | 1.09 | 0.18 | 77 | 1008.8 |
| 20260506165533 | 14 | 300 | 3.2 | 11.3 | 0.00 | 1.09 | 0.18 | 77 | 1008.7 |
| 20260506165031 | 14 | 311 | 3.2 | 8.0 | 0.00 | 1.09 | 0.18 | 77 | 1008.7 |
| 20260506164531 | 14 | 313 | 1.6 | 8.0 | 0.00 | 1.09 | 0.18 | 76 | 1008.7 |
| 20260506164033 | 14 | 299 | 1.6 | 6.4 | 0.00 | 1.09 | 0.18 | 77 | 1008.8 |
| 20260506163534 | 14 | 341 | 1.6 | 6.4 | 0.00 | 1.09 | 0.18 | 76 | 1008.8 |
| 20260506163037 | 14 | 305 | 3.2 | 6.4 | 0.00 | 1.09 | 0.18 | 75 | 1008.8 |
| 20260506162542 | 14 | 341 | 1.6 | 8.0 | 0.00 | 1.09 | 0.18 | 77 | 1008.8 |
| 20260506162044 | 14 | 344 | 3.2 | 8.0 | 0.00 | 1.09 | 0.18 | 75 | 1008.8 |
| 20260506161529 | 15 | 293 | 3.2 | 6.4 | 0.00 | 1.09 | 0.18 | 75 | 1008.8 |
| 20260506161052 | 15 | 304 | 1.6 | 6.4 | 0.00 | 1.09 | 0.18 | 75 | 1008.7 |
| 20260506160540 | 15 | 306 | 1.6 | 9.7 | 0.00 | 1.09 | 0.18 | 73 | 1008.7 |
| 20260506160035 | 15 | 305 | 3.2 | 9.7 | 0.00 | 1.09 | 0.18 | 73 | 1008.7 |
| 20260506155607 | 15 | 11 | 1.6 | 8.0 | 0.00 | 1.09 | 0.18 | 75 | 1008.7 |
| 20260506155106 | 15 | 313 | 3.2 | 8.0 | 0.00 | 1.09 | 0.18 | 75 | 1008.7 |
| 20260506154556 | 15 | 302 | 3.2 | 8.0 | 0.00 | 1.09 | 0.18 | 76 | 1008.7 |
| 20260506154057 | 15 | 280 | 3.2 | 9.7 | 0.00 | 1.09 | 0.18 | 73 | 1008.7 |
| 20260506153547 | 15 | 329 | 1.6 | 8.0 | 0.00 | 1.09 | 0.18 | 73 | 1008.7 |
| 20260506153041 | 15 | 291 | 1.6 | 8.0 | 0.00 | 1.09 | 0.18 | 74 | 1008.7 |
| 20260506152546 | 15 | 306 | 1.6 | 4.8 | 0.00 | 1.09 | 0.18 | 73 | 1008.6 |
| 20260506152105 | 15 | 360 | 1.6 | 9.7 | 0.00 | 1.09 | 0.18 | 72 | 1008.6 |
| 20260506151537 | 15 | 309 | 4.8 | 9.7 | 0.00 | 1.09 | 0.18 | 73 | 1008.6 |
| 20260506151037 | 15 | 287 | 3.2 | 9.7 | 0.00 | 1.09 | 0.18 | 72 | 1008.6 |
| 20260506150540 | 15 | 315 | 3.2 | 11.3 | 0.00 | 1.09 | 0.18 | 75 | 1008.6 |
| 20260506150037 | 15 | 346 | 1.6 | 6.4 | 0.00 | 1.09 | 0.18 | 73 | 1008.6 |
| 20260506145528 | 15 | 360 | 1.6 | 6.4 | 0.00 | 1.09 | 0.18 | 76 | 1008.6 |
| 20260506145028 | 15 | 330 | 1.6 | 8.0 | 0.00 | 1.09 | 0.18 | 74 | 1008.7 |
| 20260506144535 | 15 | 5 | 4.8 | 8.0 | 0.00 | 1.09 | 0.18 | 73 | 1008.7 |
| 20260506144035 | 15 | 317 | 1.6 | 12.9 | 0.00 | 1.09 | 0.18 | 75 | 1008.7 |
| 20260506143537 | 14 | 318 | 4.8 | 12.9 | 0.00 | 1.09 | 0.18 | 74 | 1008.7 |
| 20260506143041 | 14 | 348 | 3.2 | 12.9 | 0.00 | 1.09 | 0.18 | 74 | 1008.7 |
| 20260506142543 | 15 | 15 | 4.8 | 9.7 | 0.00 | 1.09 | 0.18 | 72 | 1008.7 |
| 20260506142026 | 14 | 321 | 3.2 | 8.0 | 0.00 | 1.09 | 0.18 | 73 | 1008.7 |
| 20260506141529 | 14 | 304 | 3.2 | 12.9 | 0.00 | 1.09 | 0.18 | 74 | 1008.8 |
| 20260506141035 | 14 | 22 | 6.4 | 14.5 | 0.00 | 1.09 | 0.18 | 74 | 1008.8 |
| 20260506140537 | 14 | 331 | 6.4 | 14.5 | 0.00 | 1.09 | 0.18 | 72 | 1008.8 |
| 20260506140042 | 15 | 306 | 6.4 | 14.5 | 0.00 | 1.09 | 0.18 | 75 | 1008.8 |
| 20260506135542 | 15 | 337 | 6.4 | 14.5 | 0.00 | 1.09 | 0.18 | 78 | 1008.8 |
| 20260506135031 | 14 | 344 | 4.8 | 9.7 | 0.00 | 1.09 | 0.18 | 74 | 1008.8 |
| 20260506134537 | 14 | 331 | 1.6 | 12.9 | 0.00 | 1.09 | 0.18 | 79 | 1008.8 |
| 20260506134034 | 14 | 355 | 3.2 | 12.9 | 0.00 | 1.09 | 0.18 | 79 | 1008.8 |
| 20260506133542 | 13 | 326 | 3.2 | 12.9 | 0.00 | 1.09 | 0.18 | 81 | 1008.8 |
| 20260506133042 | 13 | 324 | 4.8 | 12.9 | 0.00 | 1.09 | 0.18 | 79 | 1008.9 |
| 20260506132527 | 14 | 15 | 3.2 | 8.0 | 0.00 | 1.09 | 0.18 | 80 | 1009.0 |
| 20260506132044 | 13 | 323 | 1.6 | 6.4 | 0.00 | 1.09 | 0.18 | 82 | 1008.9 |
| 20260506131531 | 13 | 355 | 1.6 | 12.9 | 0.00 | 1.09 | 0.18 | 81 | 1009.0 |
| 20260506131027 | 13 | 343 | 3.2 | 12.9 | 0.00 | 1.09 | 0.18 | 79 | 1009.0 |
| 20260506130533 | 13 | 346 | 4.8 | 9.7 | 0.00 | 1.09 | 0.18 | 80 | 1009.0 |
| 20260506130051 | 13 | 338 | 6.4 | 9.7 | 0.00 | 1.09 | 0.18 | 81 | 1008.9 |
| 20260506125540 | 13 | 23 | 3.2 | 12.9 | 0.00 | 1.09 | 0.18 | 80 | 1009.0 |
| 20260506125041 | 13 | 17 | 4.8 | 12.9 | 0.00 | 1.09 | 0.18 | 82 | 1008.9 |
| 20260506124528 | 13 | 351 | 3.2 | 11.3 | 0.00 | 1.09 | 0.18 | 83 | 1008.9 |
| 20260506124028 | 13 | 331 | 3.2 | 12.9 | 0.00 | 1.09 | 0.18 | 83 | 1008.8 |
| 20260506123533 | 13 | 333 | 3.2 | 12.9 | 0.00 | 1.09 | 0.18 | 84 | 1008.8 |
| 20260506123033 | 13 | 345 | 4.8 | 9.7 | 0.00 | 1.09 | 0.18 | 85 | 1008.8 |
| 20260506122540 | 12 | 5 | 1.6 | 8.0 | 0.00 | 1.09 | 0.18 | 85 | 1008.8 |
| 20260506121530 | 12 | 334 | 3.2 | 9.7 | 0.00 | 1.09 | 0.18 | 85 | 1008.7 |
| 20260506121029 | 12 | 341 | 4.8 | 14.5 | 0.00 | 1.09 | 0.18 | 83 | 1008.7 |
| 20260506120532 | 12 | 323 | 4.8 | 14.5 | 0.00 | 1.09 | 0.18 | 83 | 1008.7 |
| 20260506120027 | 12 | 323 | 3.2 | 8.0 | 0.00 | 1.09 | 0.18 | 84 | 1008.8 |
| 20260506115531 | 12 | 349 | 3.2 | 14.5 | 0.00 | 1.09 | 0.18 | 84 | 1008.8 |
| 20260506115056 | 12 | 336 | 4.8 | 14.5 | 0.00 | 1.09 | 0.18 | 83 | 1008.8 |
| 20260506114528 | 12 | 355 | 4.8 | 12.9 | 0.00 | 1.09 | 0.18 | 85 | 1008.8 |
| 20260506114102 | 12 | 348 | 4.8 | 12.9 | 0.00 | 1.09 | 0.18 | 85 | 1008.8 |
| 20260506113552 | 12 | 333 | 4.8 | 12.9 | 0.00 | 1.09 | 0.18 | 85 | 1008.8 |
| 20260506113033 | 11 | 355 | 3.2 | 9.7 | 0.00 | 1.09 | 0.18 | 87 | 1008.8 |
| 20260506112541 | 11 | 339 | 3.2 | 9.7 | 0.00 | 1.09 | 0.18 | 88 | 1008.7 |
| 20260506112041 | 11 | 16 | 3.2 | 8.0 | 0.00 | 1.09 | 0.18 | 88 | 1008.8 |
| 20260506111530 | 11 | 343 | 1.6 | 8.0 | 0.00 | 1.09 | 0.18 | 89 | 1008.8 |
| 20260506111044 | 11 | 344 | 3.2 | 8.0 | 0.00 | 1.09 | 0.18 | 88 | 1008.7 |
| 20260506110542 | 11 | 355 | 3.2 | 12.9 | 0.00 | 1.09 | 0.18 | 88 | 1008.7 |
| 20260506110055 | 11 | 355 | 4.8 | 12.9 | 0.00 | 1.91 | 0.18 | 87 | 1008.7 |